User: anonymous   Login
Location: Unspecified
(0.0000°N, 0.0000°E)
Time: 21:57:45
(UTC+00:00)
Language:

CP3 - Orbit

View from above orbital plane
View from above orbital plane
View from above satellite
View from above satellite

Ground track
Ground track

The orbit data is extracted from the following two-line orbital elements,

1 31129U 07012N   17082.80919642 +.00000241 +00000-0 +60992-4 0  9990
2 31129 098.0702 035.2716 0096966 102.6410 258.5651 14.56463168527042
Epoch (UTC): 23 March 2017 19:25:14
Eccentricity: 0.0096966
inclination: 98.0702°
perigee height: 636 km
apogee height: 773 km
right ascension of ascending node: 35.2716°
argument of perigee: 102.6410°
revolutions per day: 14.56463168
mean anomaly at epoch: 258.5651°
orbit number at epoch: 52704

The dashed part of the orbit path shows where the satellite is in the earth's shadow,  

DLR